Regional Weather Roundup
Issued by NWS Wakefield, VA

Current Version | Previous Version | Text Only | Print | Product List | Glossary On
Versions: 1 2 3 4 5 6 7 8 9 10 11 12 13 14 15 16 17 18 19 20 21 22 23 24 25 26 27
000
ASUS41 KAKQ 301211
RWRAKQ

REGIONAL WEATHER ROUNDUP
NATIONAL WEATHER SERVICE WAKEFIELD VA
800 AM EDT FRI SEP 30 2022

Note: "fair" indicates few or no clouds below 12,000 feet with no
significant weather and/or obstructions to visibility. * = Denotes
station may not report precipitation (e.g., rain,snow,etc.),
thunder or fog.

VAZ042-051-052>054-056-301300-
NORTHERN VIRGINIA

CITY           SKY/WX    TMP DP  RH WIND       PRES   REMARKS
WASH NATIONAL  CLOUDY    56  45  66 N14       30.26F
DULLES         CLOUDY    52  44  74 N8        30.28R
FORT BELVOIR   CLOUDY    56  45  68 N5        30.24S
QUANTICO       CLOUDY    57  50  78 N10       30.26R
FREDERICKSBRG* CLOUDY    55  46  72 N7        30.23R
STAFFORD*      CLOUDY    55  46  69 N10       30.28R
WARRENTON      NOT AVBL
CULPEPER*      CLOUDY    51  45  77 N7        30.27S
MANASSAS*      CLOUDY    52  45  77 N13       30.27S
LEESBURG*      CLOUDY    50  45  81 N12G18    30.30S
WINCHESTER     CLOUDY    45  43  93 CALM      30.30R
FRONT ROYAL*   FAIR      45  43  93 CALM      30.30S
LURAY*         FAIR      46  45  93 N8        30.28S
$$

VAZ048-049-060>072-079>083-301300-
CENTRAL AND SOUTH CENTRAL VIRGINIA

CITY           SKY/WX    TMP DP  RH WIND       PRES   REMARKS
RICHMOND       CLOUDY    57  51  80 N17       30.17S
CHESTERFIELD*  FAIR      57  50  77 VRB7G16   30.17S
PETERSBURG*    LGT RAIN  58  51  77 N13G20    30.15F
HANOVER        CLOUDY    57  50  77 VRB6      30.21R
TAPPAHANNOCK*  CLOUDY    60  55  85 N7G17     30.20S
QUINTON*       CLOUDY    58  52  79 N5        30.16F
CHARLOTTSVILLE CLOUDY    55  45  68 NE12      30.24S
GORDONSVILLE*  NOT AVBL
ORANGE*        CLOUDY    50  45  81 N7        30.27S
LOUISA*        CLOUDY    50  47  87 N12       30.23S
BUMPASS*       FAIR      53  47  81 NE3       30.22S
FARMVILLE*     CLOUDY    54  47  76 N10G22    30.18R
CREWE*         CLOUDY    54  46  72 N8        30.16S
FORT PICKETT*  CLOUDY    55  49  81 N14G22    30.14F
CHASE CITY*    CLOUDY    55  50  84 N9G21     30.14R
CLARKSVILLE*   CLOUDY    54  54 100 N10G17    30.12S
SOUTH HILL*    CLOUDY    56  55  97 N12G18    30.17R
LAWRENCEVILLE* CLOUDY    59  54  83 N5        30.12R
EMPORIA*       LGT RAIN  57  54  91 N10       30.11R
$$

VAZ088>098-301300-
SOUTHEAST VIRGINIA

CITY           SKY/WX    TMP DP  RH WIND       PRES   REMARKS
NORFOLK        RAIN      65  63  93 NE25G36   30.08S FOG
VIRGINIA BEACH LGT RAIN  66  63  90 NE23G37   30.07R
NORFOLK NAVAL  LGT RAIN  65  61  87 NE23G31   30.10
WEST POINT*    NOT AVBL
SALUDA*        CLOUDY    63  56  78 NE9G18    30.16S
NEWPORT NEWS   RAIN      62  60  93 NE14      30.12R FOG
LANGLEY AFB    HVY RAIN  64  63  99 E24G31    30.10
FORT EUSTIS    RAIN      63  59  87 NE8       30.09S
WILLIAMSBURG*  NOT AVBL
HR EXEC AP*    CLOUDY    63  63 100 NE10G20   30.09R
FRANKLIN*      CLOUDY    61  60  98 N12G17    30.08S
US460-WAKEFLD  RAIN      61  57  87 VRB5      30.10F FOG
$$

VAZ020-022-025-037-045-301300-
WEST CENTRAL AND SOUTHWEST VIRGINIA

CITY           SKY/WX    TMP DP  RH WIND       PRES   REMARKS
STAUNTON*      CLOUDY    46  44  93 NE7       30.29S
WAYNESBORO*    FAIR      46  45  96 MISG      30.26F
HOT SPRINGS VA MOCLDY    44  44 100 E13G21    30.23S
LYNCHBURG      CLOUDY    56  44  64 NE12G21   30.19S
DANVILLE       LGT RAIN  55  47  74 NE15G22   30.14R
SOUTH BOSTON*  CLOUDY    55  47  74 N8        30.15R
MARTINSVILLE   CLOUDY    54  43  66 NE13G20   30.18S
ROANOKE        CLOUDY    52  44  74 CALM      30.22S
BLACKSBURG     MOCLDY    49  46  90 NE9       30.22S
DUBLIN*        CLOUDY    47  44  91 NE8       30.19S
MARION*        CLOUDY    42  41  97 SE5       30.21S
HILLSVILLE*    CLOUDY    46  41  82 NE7       30.16S
RICHLANDS*     FAIR      44  42  94 NE6       30.17F
WISE*          CLOUDY    43  43 100 NE3       30.19S
ABINGDON*      CLOUDY    49  44  82 E8G16     30.14F
$$

MDZ021>025-VAZ099-100-301300-
SOUTHERN MARYLAND AND THE DELMARVA PENINSULA

CITY           SKY/WX    TMP DP  RH WIND       PRES   REMARKS
PATUXENT RIVER CLOUDY    62  52  69 NE12G21   30.21R
BAY BRIDGE APT NOT AVBL
LEONARDTOWN    CLOUDY    61  54  77 NE5       30.23S
DOVER          CLOUDY    57  49  76 N15       30.23F
GEORGETOWN     CLOUDY    61  54  77 NE13      30.23R
EASTON         SUNNY     55  55 100 N12G23    30.27S
CAMBRIDGE      NOT AVBL
SALISBURY      CLOUDY    60  55  83 N9        30.19S
TANGIER        FAIR      64  56  77 NE18G26   30.16R
OCEAN CITY     CLOUDY    65  57  75 NE20G28   30.19S
WALLOPS ISLAND CLOUDY    66  57  72 NE23G31   30.16S
ACCOMACK*      NOT AVBL
$$

NCZ012>017-030>032-301300-
NORTH CENTRAL AND EASTERN NORTH CAROLINA

CITY           SKY/WX    TMP DP  RH WIND       PRES   REMARKS
ROANOKE RAPIDS RAIN      54  54 100 N13G18    30.07R
RALEIGH        RAIN      56  54  93 NE21G29   30.03F FOG
ELIZABETH CITY RAIN      67  65  93 NE26G32   30.00F FOG
AHOSKIE*       RAIN      60  60 100 N13       30.05R
EDENTON*       LGT RAIN  67  67 100 NE15G22   30.02R
CURRITUCK*     LGT RAIN  66  66 100 NE20G31   30.02F
KILL DEVIL HLS RAIN      67  67 100 NE16G28   29.95F
MANTEO         LGT RAIN  67  66  96 NE25G35   29.95F
CAPE HATTERAS  HVY RAIN  71  32  23 NE12G29   29.82F VSB 1/4
TARBORO*       RAIN      60  59  96 N10G18    30.02S FOG
GOLDSBORO      LGT RAIN  60  57  89 N14G21    29.89F
WASHINGTON     NOT AVBL
GREENVILLE     RAIN      63  63 100 NE21G30   29.93F
NEW BERN       HVY RAIN  66  65  96 NE20G31   29.88F FOG
WILMINGTON     LGT RAIN  67  64  90 NE23G33   29.77F
$$

VAZ048-301300-
ELSEWHERE

CITY           SKY/WX    TMP DP  RH WIND       PRES   REMARKS
HARRISBURG PA  CLOUDY    49  43  80 NW3       30.32S
BALTIMORE      CLOUDY    56  46  69 NE10      30.26F
ANNAPOLIS      CLOUDY    60  51  72 NE13G21   30.25F
ANDREWS AFB    CLOUDY    53  45  75 N14       30.22F
PHILADELPHIA   CLOUDY    56  46  69 NE13      30.30F
HENDERSON NC   RAIN      52  51  99 NE9G17    30.10S
GREENSBORO     LGT RAIN  53  48  83 NE16G23   30.09S
ROCKY MOUNT    RAIN      58  56  93 N20G35    29.99F
$$

VAZ100-301300-
MARINE

STATION/POSITION TIME  TEMP    WIND        PRES    WAVE   SWELL
                       AIR SEA DIR/SP/G            HT/PER HT/PER
                 (UTC) (F)     (DEG/KT/KT) (MB)    (FT/S) (FT/S)
CAPE MAY NJ      1130   56 72   20/  5/  9 1023.3F
LEWES DE         1130   61 65   40/ 17/ 20 1023.4F
15NM E FENWICK I 1150   66 68   50/ 25/ 31 1022.3R
OCEAN-CITY-INLET 1130   66 67   80/ 15/ 24 1022.6S
44089 WALLOPS IS 1156      70                N/A    10/ 7   2/11
WACHAPREAGUE VA  1130   66 64   50/ 24/ 30 1019.6S
THOMAS POINT MD  1200   58      10/ 21/ 23 1024.8F
GOOSES REEF MD   1148   58 71   30/ 23/ 31 1023.5F   3/ 4
COVE POINT MD    1130   59      20/ 17/ 22 1023.4R
SOLOMONS ISLAND  1130   59 71   30/ 13/ 17 1021.7R
BISHOPS HEAD MD  1130   59 63   30/ 16/ 20 1022.2R
PINEY POINT MD   1130           60/ 11/ 18   N/A
POTOMAC MD       1148   60 70   40/ 17/ 25   N/A     1/ 4
CAMBRIDGE MD     1130   58 67   50/ 12/ 17 1023.1S
LEWISETTA VA     1130   62 67   50/ 12/ 17 1022.4R
RAPPAHANNOCK LGT 1130           30/ 24/ 29 1020.7R
STINGRAY PT      1148   63      40/ 23/ 29   N/A     3/ 4
YORK RVR RNG VA  1130   66      50/ 27/ 30 1019.6R
YORKTOWN VA      1130   66 71   40/ 18/ 25 1019.8R
JAMESTOWN VA     1148   62      40/  8/ 12   N/A     0
DOMINION TERM VA 1130   64      40/ 10/ 19 1018.8F
KIPTOPEKE VA     1130      72   60/ 16/ 24   N/A
CHES BAY BRIDGE  1130   66      60/ 27/ 31 1017.4F
CAPE HENRY VA    1130   67      40/ 33/ 39 1018.7S
WILLOUBY STN VA  1130   65      60/ 26/ 31 1019.3F
S CRANEY ISL VA  1130   66      50/ 22/ 28 1018.0F
CAPE HENRY BUOY  1156      72                N/A    10/ 8   2/11
1ST LANDING BUOY 1148   62 71   50/ 27/ 37   N/A     4/ 5
64NM E OF VA BCH 1150           50/ 25/ 31 1015.5R  11/ 8
DUCK PIER NC     1130   68 70   40/ 35/ 39 1015.5R
44100 DUCK FRF   1156      73                N/A    12/ 9   3/11
44056 DUCK FRF   1156      73                N/A    11/ 8   3/11
OREGON INLET NC  1130   69 71   60/ 20/ 28 1013.2F
HATTERAS NC      1130   70 68   60/ 14/ 29 1012.0R
DIAMOND SHLS NC  1150      83  110/ 27/ 35 1009.7R
CAPE LOOKOUT NC  1100   68      20/ 29/ 36 1010.1F
$$


USA.gov is the U.S. government's official web portal to all federal, state and local government web resources and services.